SCP
0 0 0 0 0 0 0 0 0 0 0 0 0 0 0 0 0 0 0 1 1 1 1 1 1 1 1 0 0 0 0 0 0 0 0 0 0 0 0 0 0 0 0 0
0 0 0 0 0 0 0 0 0 0 0 0 0 0 0 0 1 1 1 1 1 1 1 1 1 1 1 1 0 0 0 0 0 0 0 0 0 0 0 0 0 0 0 0
0 0 0 0 0 0 0 0 0 0 0 0 0 0 0 1 1 1 1 1 1 1 1 1 1 1 1 1 1 0 0 0 0 0 0 0 0 0 0 0 0 0 0 0
0 0 0 0 0 0 0 0 0 0 0 0 0 1 1 1 1 1 1 1 1 1 1 1 1 1 1 1 1 1 0 0 0 0 0 0 0 0 0 0 0 0 0 0
0 0 0 0 0 0 0 0 0 0 0 1 1 1 1 1 1 1 1 1 1 1 1 1 1 1 1 1 1 0 0 0 0 0 0 0 0 0 0 0 0 0 0 0
0 0 0 0 0 0 0 0 0 1 1 1 1 1 1 1 1 1 1 1 1 1 1 1 1 1 1 1 1 0 0 0 0 0 0 0 0 0 0 0 0 0 0 0
0 0 0 0 0 0 0 0 0 1 1 1 1 1 1 1 1 1 1 1 1 1 1 1 1 1 1 1 1 0 0 0 0 0 0 0 0 0 0 0 0 0 0 0
0 0 0 0 0 0 0 0 1 1 1 1 1 1 1 1 1 1 1 1 1 1 1 1 1 1 1 1 1 1 0 0 0 0 0 0 0 0 0 0 0 0 0 0
0 0 0 0 0 0 0 0 1 1 1 1 1 1 1 1 1 1 1 1 1 1 1 1 1 1 1 1 1 1 0 0 0 0 0 0 0 0 0 0 0 0 0 0
0 0 0 0 0 0 0 0 1 1 1 1 1 1 1 1 1 1 1 1 1 1 1 1 1 1 1 1 1 1 0 0 0 0 0 0 0 0 0 0 0 0 0 0
0 0 0 0 0 0 0 0 1 1 1 1 1 1 1 1 1 1 1 1 1 1 1 1 1 1 1 1 1 0 0 0 0 0 0 0 0 0 0 0 0 0 0 0
0 0 0 0 0 0 0 0 1 1 1 1 1 1 1 1 1 1 1 1 0 0 0 0 0 0 0 0 0 0 0 0 0 0 0 0 0 0 0 0 0 0 0 0
0 0 0 0 0 0 0 0 1 1 1 1 1 1 1 1 1 0 0 0 0 0 0 0 0 0 0 0 0 0 0 0 0 0 0 0 0 0 0 0 0 0 0 0
0 0 0 0 0 0 0 0 0 1 1 1 1 1 1 0 0 0 0 0 0 0 0 0 0 0 0 0 0 0 0 0 0 0 0 0 0 0 0 0 0 0 0 0
0 0 0 0 0 0 0 0 0 0 0 0 0 0 0 0 0 0 0 0 0 0 0 0 0 0 0 0 0 0 0 0 0 0 0 0 0 0 0 0 0 0 0 0
0 0 0 0 0 0 0 0 0 0 0 0 0 0 0 0 0 0 0 0 0 0 0 0 0 0 0 0 0 0 0 0 0 0 0 0 0 0 0 0 0 0 0 0
0 0 0 0 0 0 0 0 0 0 0 0 0 0 0 0 0 0 0 0 0 0 0 0 0 0 0 0 0 0 0 0 0 0 0 0 0 0 0 0 0 0 0 0
0 0 0 0 0 0 0 0 0 0 0 0 0 0 0 0 0 0 0 0 0 0 0 0 0 0 0 0 0 0 0 0 0 0 0 0 0 0 0 0 0 0 0 0
0 0 0 0 0 0 0 0 0 0 0 0 0 0 0 0 0 0 0 0 0 0 0 0 0 0 0 0 0 0 0 0 0 0 0 0 0 0 0 0 0 0 0 0
0 0 0 0 0 0 0 0 0 0 0 0 0 0 0 0 0 0 0 0 0 0 0 0 0 0 0 0 0 0 0 0 0 0 0 0 0 0 0 0 0 0 0 0
0 0 0 0 0 0 0 0 0 0 0 0 0 0 0 0 0 0 0 0 0 0 0 0 0 0 0 0 0 0 0 0 0 0 0 0 0 0 0 0 0 0 0 0
0 0 0 0 0 0 0 0 0 0 0 0 0 0 0 0 0 0 0 0 0 0 0 0 0 0 0 0 0 0 0 0 0 0 0 0 0 0 0 0 0 0 0 0
0 0 0 0 0 0 0 0 0 0 0 0 0 0 0 0 0 0 0 0 0 0 0 0 0 0 0 0 0 0 0 0 0 0 0 0 0 0 0 0 0 0 0 0
0 0 0 0 0 0 0 0 0 0 0 0 0 0 0 0 0 0 0 0 0 0 0 0 0 0 0 0 0 0 0 0 0 0 0 0 0 0 0 0 0 0 0 0
0 0 0 0 0 0 0 0 0 0 0 0 0 0 0 0 0 0 0 0 0 0 0 0 0 0 0 0 0 0 0 0 0 0 0 0 0 0 0 0 0 0 0 0
0 0 0 0 0 0 0 0 0 0 0 0 0 0 0 0 0 0 0 0 0 0 0 0 0 0 0 0 0 0 0 0 0 0 0 0 0 0 0 0 0 0 0 0
0 0 0 0 0 0 0 0 0 0 0 0 0 0 0 0 0 0 0 0 0 0 0 0 0 0 0 0 0 0 0 0 0 0 0 0 0 0 0 0 0 0 0 0
Wind_Speed
5 4 4 4 5 6 6 8 9 8 8 10 8 7 6 5 4 5 6 6 7 7 6 6 6 5 6 6 6 6 6 5 5 4 4 4 4 3 3 3 3 3 3 2
1 2 3 2 4 6 4 4 5 3 7 7 5 2 2 3 5 7 7 8 8 8 8 8 8 8 7 7 7 6 6 5 5 5 5 4 4 4 4 3 3 3 3 3
2 1 3 3 5 5 3 2 4 5 6 4 3 3 4 5 5 7 8 8 8 9 9 9 9 9 8 7 6 7 6 5 5 5 5 4 5 4 4 3 3 3 3 3
3 4 5 8 2 3 4 1 1 3 5 4 5 4 2 2 5 6 6 6 7 7 7 6 7 7 7 7 7 6 6 5 5 5 5 4 5 4 3 3 3 3 3 3
4 4 3 4 0 2 3 1 1 3 5 3 2 1 2 2 2 4 5 4 5 6 6 6 7 8 9 8 7 7 6 6 6 6 5 5 5 4 3 3 3 3 2 3
5 5 6 5 3 3 2 1 3 2 3 3 3 2 4 4 2 2 1 1 3 5 7 8 8 9 10 8 7 7 7 6 6 6 6 6 5 4 3 3 3 3 3 2
4 3 5 4 7 2 4 5 4 2 2 0 1 3 4 4 3 2 2 2 4 6 6 6 8 9 9 8 7 6 6 6 5 5 5 5 4 3 4 4 4 3 3 2
4 3 5 5 4 2 4 3 3 2 2 0 1 2 2 3 3 4 4 4 5 5 5 5 7 9 8 7 5 6 6 6 6 5 4 4 5 4 4 4 4 3 3 2
5 5 4 3 2 2 2 1 2 2 3 1 1 2 3 3 3 3 3 4 4 5 5 4 5 6 7 6 6 7 6 5 5 5 4 4 5 4 3 3 3 3 3 2
1 1 2 3 3 3 2 0 1 1 2 2 2 2 3 3 3 3 3 3 4 5 5 4 3 4 5 6 7 7 7 6 5 5 4 4 4 4 3 3 3 3 3 2
1 1 2 4 3 4 3 3 3 3 3 2 3 2 2 2 2 2 2 2 3 4 4 4 3 3 4 6 6 7 6 6 5 5 5 4 3 2 3 2 2 3 3 3
4 4 3 3 4 3 3 3 3 3 4 4 3 3 3 2 2 1 2 2 3 4 4 4 3 3 3 4 5 6 5 5 4 3 4 4 4 3 5 3 3 3 2 2
4 3 3 4 3 2 1 2 2 2 2 3 3 2 2 2 2 2 2 2 3 3 3 3 4 3 2 3 5 6 5 4 3 3 4 4 4 4 3 2 4 3 2 2
3 1 2 3 2 2 2 2 2 2 2 2 2 1 1 2 2 2 1 1 2 3 3 3 3 2 2 4 5 5 5 5 4 3 4 4 4 3 3 3 2 1 1 2
3 3 4 3 2 2 2 1 2 2 2 2 2 1 1 2 1 1 1 1 3 2 2 2 2 1 1 4 5 5 4 3 3 3 3 3 3 3 3 3 3 2 1 1
3 2 1 2 3 2 1 1 1 2 2 2 2 2 1 1 2 2 1 2 3 2 1 2 2 1 2 3 4 4 3 5 4 3 3 3 3 3 3 3 3 2 2 2
2 3 2 2 3 3 3 3 3 3 3 2 2 1 1 1 2 1 1 1 2 2 2 2 2 1 2 3 4 3 3 4 5 4 3 3 3 3 3 3 3 2 2 2
4 4 4 4 4 3 3 3 3 3 3 2 1 1 2 2 3 2 2 1 2 1 0 1 2 2 2 2 3 3 3 3 3 3 3 3 3 3 3 3 3 3 2 2
2 2 2 2 3 3 3 2 2 2 2 1 1 1 1 2 2 2 2 2 2 2 1 1 2 2 2 3 3 3 3 4 3 3 3 3 3 2 3 3 3 2 2 2
3 2 2 2 2 1 2 2 2 2 1 1 1 1 1 1 1 2 3 2 2 2 2 2 2 2 2 3 4 3 4 4 4 3 3 3 3 2 2 2 2 2 2 2
4 3 3 3 2 2 2 1 1 2 2 1 2 2 2 1 1 2 2 1 2 1 2 2 2 2 2 3 4 3 4 4 3 3 3 3 2 2 2 2 2 2 2 2
4 3 2 2 2 2 2 1 1 1 1 1 1 1 1 1 1 1 1 1 1 1 1 1 1 2 3 4 3 3 3 3 3 3 2 2 2 2 2 2 2 2 2 2
3 2 1 1 1 1 2 2 1 1 1 0 1 1 1 1 1 1 0 0 1 2 1 1 2 4 5 3 2 3 3 3 3 2 2 2 2 2 2 2 1 1 1 1
2 1 1 1 1 1 2 2 2 2 2 3 3 2 2 2 2 1 1 2 3 3 2 3 4 5 4 2 2 3 3 3 3 2 2 2 1 1 1 1 1 1 1 1
1 2 2 2 2 1 1 2 3 3 4 3 4 4 3 2 2 2 2 3 5 4 3 4 5 5 4 3 4 4 3 3 3 2 2 2 2 2 1 1 1 1 1 1
2 2 2 2 2 2 2 2 3 3 3 3 4 4 4 3 4 4 4 4 6 5 4 3 4 5 5 5 5 5 4 4 4 3 3 3 3 2 2 2 2 1 1 1
3 2 2 3 3 2 2 2 3 3 2 3 3 3 3 4 4 4 5 4 4 5 4 4 4 5 5 5 5 5 5 4 4 4 4 3 3 3 3 3 2 2 2 2
Wind_Direction
212 207 176 181 181 171 172 177 179 222 228 256 255 243 236 219 197 183 186 185 180 179 179 172 169 172 172 171 169 163 159 161 166 158 147 140 138 135 131 133 136 131 118 101
217 206 189 199 207 181 187 177 204 230 255 260 276 252 227 204 189 195 200 198 186 181 181 178 176 179 176 175 170 161 160 160 154 146 141 140 137 128 122 117 118 119 112 106
205 214 108 231 218 188 181 179 177 207 249 302 295 246 220 206 197 205 205 199 191 190 189 185 182 176 174 175 163 158 156 152 152 146 146 146 139 129 126 124 118 112 111 114
135 113 193 237 261 168 145 124 239 255 276 275 258 246 237 205 201 211 205 198 193 189 188 181 168 162 156 151 150 151 151 154 152 149 148 142 135 134 128 119 116 114 113 112
125 158 238 289 313 141 146 234 294 275 297 309 314 33 340 303 233 228 216 198 187 176 169 159 159 155 145 145 147 155 160 165 161 158 155 150 149 145 137 130 123 118 115 115
124 144 206 236 305 306 129 263 317 322 315 326 40 61 285 315 320 319 335 149 150 143 140 149 153 148 148 153 161 171 169 169 161 161 161 160 159 149 137 136 138 133 121 117
141 177 246 280 304 320 162 232 308 323 310 306 172 225 281 331 354 25 51 85 119 125 136 149 148 147 151 156 173 173 156 151 151 157 158 155 150 145 140 137 134 133 127 111
138 163 241 320 359 122 212 266 304 311 307 289 258 309 359 22 36 44 52 69 100 113 121 134 146 150 155 167 166 146 147 148 151 151 152 149 147 144 143 147 146 146 139 121
174 200 252 298 281 277 231 247 308 329 328 355 21 18 26 33 43 54 60 79 97 112 114 117 137 148 157 158 142 140 137 143 147 143 143 144 147 148 146 150 154 157 154 153
100 289 312 328 333 339 346 317 325 358 13 44 51 41 52 57 53 55 60 76 93 107 116 119 129 135 138 136 140 141 144 150 152 149 149 142 142 149 155 162 167 166 170 175
112 267 342 344 344 335 347 5 22 29 38 49 74 59 50 49 45 63 78 78 94 112 123 125 122 120 130 142 146 147 148 151 156 153 149 142 133 126 151 149 182 178 184 176
205 218 186 255 292 327 4 4 9 28 29 33 56 66 67 65 51 40 63 83 96 101 111 114 113 113 119 136 145 150 151 155 157 155 152 152 147 111 65 86 101 111 125 154
210 212 209 249 280 317 338 341 1 28 35 36 35 54 66 72 72 69 64 74 102 115 116 116 112 115 126 131 141 146 151 153 153 157 161 161 161 159 155 97 81 91 108 138
227 209 259 263 273 316 319 323 357 35 36 44 50 69 90 84 87 89 92 122 120 114 114 118 116 125 154 141 141 140 143 149 157 165 167 165 166 169 168 165 159 127 72 88
271 230 228 254 284 304 311 341 14 358 349 355 5 21 103 119 129 128 137 117 99 99 110 122 120 125 136 140 139 140 143 147 157 159 161 160 158 158 157 157 156 145 117 89
281 281 240 232 252 273 292 307 293 290 293 302 328 330 322 126 116 102 110 125 132 156 165 145 145 161 141 138 135 136 142 148 155 152 148 149 151 156 159 163 169 170 174 170
244 257 248 251 252 253 249 246 247 255 255 250 247 231 147 122 110 114 169 167 157 168 168 163 175 160 143 146 147 149 148 149 145 143 148 156 160 166 169 172 176 179 191 177
235 241 239 233 239 249 257 256 255 255 242 233 203 159 164 173 182 192 201 180 138 118 134 168 169 152 144 148 147 146 148 150 151 153 153 156 163 166 163 169 176 179 179 159
299 277 273 268 256 250 256 260 266 270 259 221 164 189 208 209 199 185 173 173 178 199 243 197 164 153 154 162 150 147 151 150 148 149 153 158 163 169 170 172 176 180 176 173
328 327 330 322 313 275 265 270 270 272 268 228 189 181 191 204 181 169 166 186 221 222 199 178 167 163 161 154 147 148 149 151 154 154 155 159 163 168 171 171 172 175 182 193
324 321 324 326 316 313 297 283 266 270 273 229 202 206 213 219 167 153 156 207 279 179 152 163 170 173 164 155 151 149 150 153 154 156 160 165 168 173 181 186 189 192 197 205
309 306 309 311 320 327 327 323 299 275 276 247 203 174 156 148 131 120 155 209 228 133 125 147 153 147 144 142 145 147 148 149 149 153 159 162 165 172 184 188 193 195 199 209
303 299 301 302 295 309 335 353 8 22 23 59 123 125 128 136 138 138 145 319 93 113 104 109 120 119 123 123 135 140 138 137 139 145 149 155 165 173 178 182 189 190 195 205
322 353 342 7 76 52 10 6 29 49 59 61 62 76 94 90 60 50 91 98 92 93 77 87 98 98 97 102 112 115 116 118 120 126 131 132 132 135 138 144 146 149 161 178
14 35 42 55 64 58 48 52 60 64 65 62 56 54 56 67 81 71 73 85 88 83 74 75 82 84 82 85 92 93 92 93 99 105 101 98 95 96 94 90 85 73 51 48
45 45 44 50 59 63 67 69 66 64 66 63 53 53 58 62 70 70 68 69 72 72 69 67 73 78 77 78 80 82 83 84 81 77 76 77 78 76 71 68 63 50 33 25
47 49 50 50 46 56 70 74 76 67 67 78 69 54 58 64 68 69 70 71 70 69 66 64 70 75 77 78 78 77 76 75 72 71 70 68 68 65 58 53 43 34 29 30